[Date Prev][Date Next][Thread Prev][Thread Next] - [Date Index][Thread Index][Author Index]
2 Line ISS Keps 12-2
- Subject: [sarex] 2 Line ISS Keps 12-2
- From: "Dave Larsen PhD" <doc@xxxxxxxxxxx>
- Date: Sun, 2 Dec 2001 02:20:15 -0800
ISS
1 25544U 98067A 01336.14549167 .00027280 00000-0 30035-3 0 7856
2 25544 51.6390 323.7610 0010675 43.7085 50.5989 15.62865106173292
----
Via the sarex mailing list at AMSAT.ORG courtesy of AMSAT-NA.
To unsubscribe, send "unsubscribe sarex" to Majordomo@amsat.org
AMSAT Home